TITAN 3A TRANSTAGE R/B, 1001

Orbit data source: Space-Track

TITAN 3A TRANSTAGE R/B, 1001 is space debris in LEO originally from a launch on Thu, 11 Feb 1965 UTC via a TITAN IIIA launch vehicle from the Air Force Eastern Test Range (AFETR). Debris objects in space refer to the collection of defunct objects orbiting the Earth. Examples of debris include non-operational satellites, rocket bodies, and fragments generated from explosions, collisions, or faulty payload assembly.

Loading next visibility...
Identifier
1001, 1965-008A
Orbit
LEO
Country
Flag of USUS
Related business
Manufacturer
Martin Marietta
Mission
Spacecraft
Bus & Motor
TRUSS, Unknown motor
Mass
336 kg wet, 336 kg dry
Launch date (UTC)
1965-02-11 (61 years ago)
Launch vehicle
TITAN IIIA
Launch site
Air Force Eastern Test Range (AFETR)
Object type
Payload
Rocket body
Debris
Shape & HBR
Unknown
Radar Cross Section
Large (>1 m²)

Expand to show TLE details & history
Last TLE update: 9 hours ago

TLE from 9 hours ago
0 TITAN 3A TRANSTAGE R/B
1  1001U 65008A   26036.39669118 -.00000002  00000-0 -12812-2 0  9991
2  1001  32.1481  61.6305 0017600 145.4495 214.7149  9.90721970208406
Epoch: 2026-02-05T09:31Z
TLE epoch observation values (Epoch: 2026-02-05T09:31:14.117Z)
Latitude
-0.00003°
Longitude
143.27212°
Altitude
2,791.375 km
Speed
6.591 km/s
True Right ascension
04h 06m 31s
True Declination
0° 00' 00"
Sunlit
Object was in daylight at epoch
Visualization orbit readout
Latitude
Unknown
Longitude
Unknown
Altitude
Unknown
Speed
Unknown
Apparent Right ascension
Unknown
Apparent Declination
Unknown
Sunlit
N/A
Visualization observer readout
Local Sidereal Time
20:15:19
Azimuth
Unknown
Elevation
Unknown
Doppler factor
Unknown
Orbital elements
Apogee altitude
2,798.055 km
Perigee altitude
2,765.812 km
Semi-major axis
9,160.07 km
Eccentricity
0.00176
Inclination
32.1481°
RAAN
61.6305°
Arg. of periapsis
145.4495°
True anomaly
214.60025°
Mean anomaly
214.7149°
Eccentric anomaly
214.65755°
Mean motion
2.47568 °/min
Orbital period
145.41 mins
BSTAR
-0.0012812
Loading maneuver chart data...
Computing Atmospheric mass density...
Loading historical data...
Loading historical data...
Loading historical data...
Loading historical data...
Loading historical data...
Loading historical data...
Loading historical data...
Other satellites on launch #8 in the year 1965 (1965-02-11 UTC)

Documentation

Showing up to 5 results
|